Weather observations for the past three days for
Port Lavaca - Calhoun County Airport
Imperial (Metric)
Date Time (cdt) Wind (mph) Vis. (mi.) Weather Sky Cond. Temperature (ºF) Relative Humidity Wind Chill (°F) Heat Index (°F) Pressure Precipitation (in)
Air Dwpt 6 hour altimeter (in) sea level (mb) 1 hr 3 hr 6 hr
Max. Min.
17 06:22 Calm 10.00 Fair CLR 80.6 78.8 94% 88 29.98 0.0
17 06:02 Calm 10.00 Fair CLR 80.6 78.8 94% 88 29.97 0.0
17 05:42 S 6 10.00 Partly Cloudy SCT026 SCT033 SCT055 80.6 78.8 94% 88 29.97 0.0
17 05:22 S 3 10.00 Fair CLR 80.6 78.8 94% 88 29.97 0.0
17 05:02 S 3 10.00 Partly Cloudy SCT035 SCT060 80.6 78.8 94% 88 29.96 0.0
17 04:22 S 3 10.00 Fair CLR 80.6 78.8 94% 88 29.96 0.0
17 04:03 Calm 10.00 Partly Cloudy SCT023 SCT028 SCT039 80.6 78.8 94% 88 29.96 0.0
17 03:42 Calm 10.00 Fair CLR 80.6 78.8 94% 88 29.96 0.0
17 03:22 Calm 10.00 Fair CLR 82.4 78.8 89% 92 29.97 0.0
17 03:02 S 3 10.00 Fair CLR 82.4 78.8 89% 92 29.96 0.0
17 02:42 S 5 10.00 Fair CLR 82.4 78.8 89% 92 29.96 0.0
17 02:22 S 6 10.00 Fair CLR 80.6 78.8 94% 88 29.95 0.0
17 02:02 S 3 10.00 Fair CLR 80.6 78.8 94% 88 29.97 0.0
17 01:42 S 6 10.00 Fair CLR 80.6 78.8 94% 88 29.96 0.0
17 01:22 Calm 10.00 Fair CLR 80.6 78.8 94% 88 29.97 0.0
17 01:02 S 3 10.00 Fair CLR 80.6 78.8 94% 88 29.97 0.0
17 00:42 S 5 10.00 Fair CLR 80.6 78.8 94% 88 29.97 0.0
17 00:22 SE 5 10.00 Partly Cloudy SCT024 SCT030 80.6 78.8 94% 88 29.96 0.0
17 00:03 S 5 10.00 Partly Cloudy SCT024 SCT030 80.6 78.8 94% 88 29.97 0.0
16 23:42 S 6 10.00 Fair CLR 80.6 78.8 94% 88 29.96 0.0
16 23:22 S 5 10.00 Fair CLR 80.6 78.8 94% 88 29.97 0.0
16 23:03 S 5 10.00 Fair CLR 82.4 78.8 89% 92 29.97 0.0
16 22:42 SE 5 10.00 Fair CLR 82.4 78.8 89% 92 29.96 0.0
16 22:23 SE 6 10.00 Fair CLR 82.4 78.8 89% 92 29.95 0.0
16 22:02 S 5 10.00 Fair CLR 82.4 78.8 89% 92 29.95 0.0
16 21:42 SE 6 10.00 Fair CLR 82.4 78.8 89% 92 29.95 0.0
16 21:23 SE 6 10.00 Fair CLR 82.4 78.8 89% 92 29.95 0.0
16 21:02 SE 6 10.00 Fair CLR 82.4 78.8 89% 92 29.95 0.0
16 20:42 SE 5 10.00 Fair CLR 84.2 78.8 84% 96 29.94 0.0
16 20:22 S 6 10.00 Fair CLR 86 78.8 79% 99 29.94 0.0
16 20:02 S 7 10.00 Fair CLR 87.8 78.8 75% 102 29.94 0.0
16 19:42 SE 7 10.00 Fair CLR 87.8 78.8 75% 102 29.93 0.0
16 19:22 S 8 10.00 Fair CLR 87.8 78.8 75% 102 29.93 0.0
16 19:02 S 13 10.00 Fair CLR 89.6 78.8 71% 105 29.92 0.0
16 18:42 S 12 10.00 Fair CLR 89.6 78.8 71% 105 29.92 0.0
16 18:22 S 12 10.00 Fair CLR 89.6 78.8 71% 105 29.92 0.0
16 18:02 S 13 10.00 Fair CLR 89.6 78.8 71% 105 29.93 0.0
16 17:42 S 12 10.00 Partly Cloudy SCT022 SCT030 89.6 80.6 75% 108 29.94 0.0
16 17:22 S 10 10.00 Fair CLR 89.6 80.6 75% 108 29.94 0.0
16 17:02 SE 9 10.00 Fair CLR 89.6 77 67% 103 29.94 0.0
16 16:42 SE 10 10.00 Fair CLR 89.6 78.8 71% 105 29.94 0.0
16 16:24 SE 12 10.00 Fair CLR 91.4 78.8 67% 108 29.96 0.0
16 16:02 SE 10 10.00 Fair CLR 91.4 78.8 67% 108 29.96 0.0
16 15:43 SE 10 10.00 Partly Cloudy SCT028 SCT035 SCT060 89.6 78.8 71% 105 29.97 0.0
16 15:22 S 8 10.00 Mostly Cloudy SCT030 BKN037 BKN050 89.6 78.8 71% 105 29.97 0.0
16 15:02 S 12 10.00 Mostly Cloudy SCT030 BKN038 BKN050 91.4 80.6 71% 111 29.97 0.0
16 14:43 S 10 10.00 Partly Cloudy SCT040 SCT055 SCT070 93.2 80.6 67% 113 29.97 0.0
16 14:02 S 9 10.00 Fair CLR 93.2 80.6 67% 113 29.97 0.0
16 13:42 S 8 10.00 Partly Cloudy SCT038 SCT055 93.2 78.8 63% 110 29.98 0.0
16 13:22 S 8 10.00 Partly Cloudy SCT037 SCT055 93.2 78.8 63% 110 29.98 0.0
16 13:02 S 7 10.00 Fair CLR 93.2 77 59% 107 29.99 0.0
16 12:42 S 9 10.00 Partly Cloudy SCT038 SCT044 93.2 77 59% 107 29.99 0.0
16 12:22 S 8 10.00 Partly Cloudy SCT034 93.2 78.8 63% 110 29.99 0.0
16 11:43 SW 8 10.00 Partly Cloudy SCT028 91.4 78.8 67% 108 29.99 0.0
16 11:22 S 8 10.00 Fair CLR 91.4 78.8 67% 108 29.99 0.0
16 11:02 SW 7 10.00 Fair CLR 91.4 78.8 67% 108 30 0.0
16 10:43 SW 7 10.00 Fair CLR 89.6 78.8 71% 105 30 0.0
16 10:24 S 6 10.00 Fair CLR 89.6 78.8 71% 105 30 0.0
16 10:03 S 6 10.00 Fair CLR 89.6 78.8 71% 105 30 0.0
16 09:42 SW 8 10.00 Partly Cloudy SCT021 SCT027 89.6 80.6 75% 108 30.01 0.0
16 09:22 S 7 10.00 Partly Cloudy SCT023 SCT027 SCT032 87.8 78.8 75% 102 30.01 0.0
16 09:02 S 7 10.00 Fair CLR 87.8 80.6 79% 105 30.01 0.0
16 08:42 S 3 10.00 Fair CLR 87.8 80.6 79% 105 30.01 0.0
16 08:22 Calm 10.00 Fair CLR 84.2 80.6 89% 98 30.01 0.0
16 08:03 SE 3 10.00 Fair CLR 84.2 80.6 89% 98 30 0.0
16 07:42 SE 3 10.00 Fair CLR 82.4 80.6 94% 94 30 0.0
16 07:22 SE 3 10.00 Fair CLR 80.6 78.8 94% 88 30 0.0
16 07:02 S 3 10.00 Fair CLR 80.6 78.8 94% 88 29.99 0.0
16 06:44 S 3 10.00 Fair CLR 80.6 78.8 94% 88 29.98 0.0
16 06:24 S 3 10.00 Fair CLR 80.6 78.8 94% 88 29.98 0.0
16 06:03 S 5 10.00 Partly Cloudy SCT022 SCT027 SCT035 80.6 78.8 94% 88 29.98 0.0
16 05:42 Calm 10.00 Partly Cloudy SCT024 80.6 78.8 94% 88 29.98 0.0
16 05:22 S 3 10.00 Fair CLR 80.6 78.8 94% 88 29.97 0.0
16 05:02 Calm 10.00 Fair CLR 80.6 78.8 94% 88 29.97 0.0
16 04:43 S 5 10.00 Fair CLR 78.8 77 94% 83 29.97 0.0
16 04:22 Calm 10.00 Fair CLR 80.6 77 89% 87 29.97 0.0
16 04:02 S 3 10.00 Fair CLR 80.6 78.8 94% 88 29.97 0.0
16 03:42 S 3 10.00 Fair CLR 80.6 78.8 94% 88 29.97 0.0
16 03:22 S 5 10.00 Fair CLR 80.6 78.8 94% 88 29.98 0.0
16 03:02 S 5 10.00 Fair CLR 80.6 77 89% 87 29.98 0.0
16 02:42 S 5 10.00 Fair CLR 80.6 77 89% 87 29.98 0.0
16 02:24 S 5 10.00 Fair CLR 80.6 77 89% 87 29.98 0.0
16 02:03 S 6 10.00 Fair CLR 80.6 77 89% 87 29.99 0.0
16 01:42 S 5 10.00 Fair CLR 78.8 75.2 89% 82 29.99 0.0
16 01:22 S 5 10.00 Fair CLR 78.8 75.2 89% 82 29.99 0.0
16 01:02 S 5 10.00 Fair CLR 78.8 77 94% 83 29.99 0.0
16 00:42 S 5 10.00 Fair CLR 78.8 77 94% 83 29.99 0.0
16 00:03 S 3 10.00 Fair CLR 78.8 77 94% 83 29.98 0.0
15 23:42 S 5 10.00 Fair CLR 78.8 77 94% 83 29.98 0.0
15 23:22 SE 5 10.00 Fair CLR 78.8 77 94% 83 29.98 0.0
15 23:02 SE 3 10.00 Fair CLR 80.6 78.8 94% 88 29.98 0.0
15 22:42 S 3 10.00 Fair CLR 80.6 78.8 94% 88 29.98 0.0
15 22:22 S 3 10.00 Fair CLR 80.6 78.8 94% 88 29.97 0.0
15 22:02 S 5 10.00 Fair CLR 80.6 78.8 94% 88 29.96 0.0
15 21:43 S 5 10.00 Fair CLR 80.6 78.8 94% 88 29.97 0.0
15 21:22 S 6 10.00 Fair CLR 82.4 78.8 89% 92 29.96 0.0
15 21:02 S 5 10.00 Fair CLR 82.4 78.8 89% 92 29.97 0.0
15 20:42 S 6 10.00 Fair CLR 84.2 78.8 84% 96 29.97 0.0
15 20:22 S 7 10.00 Fair CLR 84.2 78.8 84% 96 29.97 0.0
15 20:02 S 7 10.00 Fair CLR 86 78.8 79% 99 29.97 0.0
15 19:42 S 6 10.00 Fair CLR 87.8 78.8 75% 102 29.97 0.0
15 19:22 S 8 10.00 Fair CLR 87.8 78.8 75% 102 29.97 0.0
15 19:02 S 12 10.00 Fair CLR 89.6 78.8 71% 105 29.97 0.0
15 18:42 S 9 10.00 Fair CLR 89.6 78.8 71% 105 29.97 0.0
15 18:22 S 9 10.00 Fair CLR 89.6 78.8 71% 105 29.97 0.0
15 18:02 S 9 10.00 Fair CLR 91.4 77 63% 105 29.97 0.0
15 17:42 S 12 10.00 Fair CLR 91.4 77 63% 105 29.97 0.0
15 17:22 S 9 10.00 Fair CLR 91.4 77 63% 105 29.98 0.0
15 17:02 S 10 10.00 Fair CLR 93.2 75.2 56% 105 29.98 0.0
15 16:42 S 10 10.00 Fair CLR 93.2 77 59% 107 29.99 0.0
15 16:22 S 12 10.00 Fair CLR 93.2 78.8 63% 110 29.99 0.0
15 16:02 S 8 10.00 Partly Cloudy SCT034 93.2 78.8 63% 110 30 0.0
15 15:42 S 8 10.00 Partly Cloudy SCT038 93.2 78.8 63% 110 30.01 0.0
15 15:23 S 9 10.00 Partly Cloudy SCT035 SCT042 93.2 78.8 63% 110 30.01 0.0
15 15:03 S 9 10.00 Partly Cloudy SCT033 SCT040 93.2 78.8 63% 110 30.02 0.0
15 14:42 SW 10 10.00 Partly Cloudy SCT031 SCT037 91.4 80.6 71% 111 30.03 0.0
15 14:23 S 9 10.00 Partly Cloudy SCT031 SCT037 SCT043 93.2 80.6 67% 113 30.03 0.0
15 14:03 SW 10 10.00 Partly Cloudy SCT032 SCT041 SCT049 91.4 80.6 71% 111 30.04 0.0
15 13:42 SW 7 10.00 Partly Cloudy SCT032 SCT049 SCT060 91.4 80.6 71% 111 30.04 0.0
15 13:22 SW 8 10.00 Partly Cloudy SCT030 SCT036 SCT044 91.4 80.6 71% 111 30.05 0.0
15 13:03 S 6 10.00 Partly Cloudy SCT029 SCT038 SCT048 91.4 78.8 67% 108 30.05 0.0
15 12:43 SW 5 10.00 Partly Cloudy SCT048 91.4 80.6 71% 111 30.06 0.0
15 12:22 S 6 10.00 Partly Cloudy SCT048 91.4 80.6 71% 111 30.07 0.0
15 12:02 SW 7 10.00 Partly Cloudy SCT026 SCT031 89.6 80.6 75% 108 30.07 0.0
15 11:42 SW 7 10.00 Mostly Cloudy BKN025 87.8 78.8 75% 102 30.07 0.0
15 11:22 SW 6 10.00 Mostly Cloudy BKN027 BKN035 89.6 80.6 75% 108 30.08 0.0
15 10:42 S 7 10.00 Mostly Cloudy BKN027 BKN033 87.8 78.8 75% 102 30.09 0.0
15 10:22 S 8 10.00 Partly Cloudy SCT024 SCT031 SCT035 87.8 78.8 75% 102 30.09 0.0
15 10:02 S 7 10.00 Mostly Cloudy SCT022 SCT028 BKN033 87.8 78.8 75% 102 30.09 0.0
15 09:42 S 7 10.00 Fair CLR 87.8 80.6 79% 105 30.09 0.0
15 09:22 S 3 10.00 Fair CLR 86 80.6 84% 102 30.1 0.0
15 09:03 S 3 10.00 Fair CLR 84.2 80.6 89% 98 30.09 0.0
15 08:42 S 3 10.00 Fair CLR 82.4 80.6 94% 94 30.09 0.0
15 08:22 Calm 10.00 Fair CLR 82.4 78.8 89% 92 30.09 0.0
15 08:02 Calm 10.00 Fair CLR 80.6 78.8 94% 88 30.08 0.0
15 07:42 S 3 10.00 Fair CLR 80.6 78.8 94% 88 30.07 0.0
15 07:22 S 3 10.00 Fair CLR 80.6 78.8 94% 88 30.07 0.0
15 07:03 S 3 10.00 Fair CLR 80.6 77 89% 87 30.06 0.0
15 06:42 S 3 10.00 Fair CLR 80.6 77 89% 87 30.06 0.0
15 06:24 S 5 10.00 Fair CLR 80.6 77 89% 87 30.05 0.0
15 06:02 S 5 10.00 Fair CLR 80.6 78.8 94% 88 30.05 0.0
15 05:42 S 5 10.00 Fair CLR 80.6 78.8 94% 88 30.06 0.0
15 05:22 S 3 10.00 Fair CLR 80.6 78.8 94% 88 30.05 0.0
15 05:02 S 3 10.00 Fair CLR 80.6 78.8 94% 88 30.05 0.0
15 04:42 S 5 10.00 Fair CLR 80.6 78.8 94% 88 30.05 0.0
15 04:22 S 3 10.00 Fair CLR 80.6 78.8 94% 88 30.05 0.0
15 04:02 S 5 10.00 Fair CLR 80.6 78.8 94% 88 30.04 0.0
15 03:43 S 3 7.00 Fair CLR 80.6 78.8 94% 88 30.04 0.0
15 03:22 SE 3 10.00 Fair CLR 80.6 78.8 94% 88 30.05 0.0
15 03:02 S 3 10.00 Fair CLR 80.6 78.8 94% 88 30.05 0.0
15 02:42 S 3 10.00 Partly Cloudy SCT019 80.6 78.8 94% 88 30.06 0.0
15 02:22 Calm 10.00 Mostly Cloudy BKN021 BKN030 BKN037 80.6 78.8 94% 88 30.06 0.0
15 01:42 SE 5 10.00 Partly Cloudy SCT022 SCT030 SCT039 80.6 78.8 94% 88 30.06 0.0
15 01:24 SE 5 10.00 Partly Cloudy SCT022 SCT028 80.6 78.8 94% 88 30.07 0.0
15 01:02 Calm 10.00 Fair CLR 80.6 78.8 94% 88 30.07 0.0
15 00:42 Calm 10.00 Fair CLR 80.6 78.8 94% 88 30.08 0.0
15 00:24 Calm 10.00 Fair CLR 80.6 78.8 94% 88 30.08 0.0
15 00:02 SE 3 10.00 Fair CLR 80.6 78.8 94% 88 30.08 0.0
14 23:42 Calm 10.00 Fair CLR 80.6 78.8 94% 88 30.07 0.0
14 23:22 SE 6 10.00 Fair CLR 80.6 78.8 94% 88 30.07 0.0
14 23:02 Calm 10.00 Fair CLR 80.6 78.8 94% 88 30.07 0.0
14 22:43 Calm 10.00 Fair CLR 80.6 78.8 94% 88 30.07 0.0
14 22:22 Calm 10.00 Fair CLR 80.6 78.8 94% 88 30.07 0.0
14 22:03 S 3 10.00 Fair CLR 80.6 78.8 94% 88 30.06 0.0
14 21:42 S 3 10.00 Fair CLR 82.4 78.8 89% 92 30.06 0.0
14 21:22 SE 5 10.00 Fair CLR 82.4 78.8 89% 92 30.06 0.0
14 21:02 S 5 10.00 Fair CLR 82.4 78.8 89% 92 30.06 0.0
14 20:42 S 6 10.00 Fair CLR 84.2 78.8 84% 96 30.06 0.0
14 20:22 S 7 10.00 Fair CLR 84.2 78.8 84% 96 30.06 0.0
14 20:02 SE 7 10.00 Fair CLR 84.2 78.8 84% 96 30.06 0.0
14 19:42 S 6 10.00 Fair CLR 86 78.8 79% 99 30.07 0.0
14 19:22 S 7 10.00 Fair CLR 86 78.8 79% 99 30.07 0.0
14 19:02 S 10 10.00 Fair CLR 87.8 78.8 75% 102 30.07 0.0
14 18:42 S 12 10.00 Fair CLR 87.8 80.6 79% 105 30.08 0.0
14 18:22 S 12 10.00 Fair CLR 87.8 78.8 75% 102 30.08 0.0
14 18:02 SE 8 10.00 Partly Cloudy SCT027 SCT032 SCT038 87.8 80.6 79% 105 30.09 0.0
14 17:42 SE 12 10.00 Partly Cloudy SCT029 SCT036 89.6 78.8 71% 105 30.09 0.0
14 17:22 SE 10 10.00 Fair CLR 89.6 78.8 71% 105 30.09 0.0
14 17:02 SE 9 10.00 Fair CLR 89.6 78.8 71% 105 30.09 0.0
14 16:42 SE 12 10.00 Fair CLR 91.4 80.6 71% 111 30.09 0.0
14 16:22 SE 12 10.00 Fair CLR 89.6 80.6 75% 108 30.1 0.0
14 16:01 S 9 10.00 Partly Cloudy SCT030 SCT038 87.8 78.8 75% 102 30.1 0.0
14 15:42 S 9 10.00 Mostly Cloudy SCT032 BKN041 BKN048 89.6 78.8 71% 105 30.11 0.0
14 15:21 S 9 10.00 Mostly Cloudy SCT032 BKN047 89.6 80.6 75% 108 30.11 0.0
14 15:02 E 9 10.00 Fair CLR 91.4 80.6 71% 111 30.12 0.0
14 14:43 SE 9 10.00 Fair CLR 89.6 80.6 75% 108 30.12 0.0
14 14:22 E 8 10.00 Fair CLR 87.8 80.6 79% 105 30.12 0.0
14 14:02 E 6 10.00 Fair CLR 89.6 78.8 71% 105 30.13 0.0
14 13:42 E 8 10.00 Fair CLR 89.6 77 67% 103 30.14 0.0
14 13:22 E 8 10.00 Fair CLR 87.8 78.8 75% 102 30.14 0.0
14 13:02 E 12 10.00 Partly Cloudy SCT010 SCT031 SCT038 84.2 78.8 84% 96 30.15 0.0
14 12:42 Calm 5.00 Rain SCT025 BKN032 OVC048 87.8 78.8 75% 102 30.15 0.0 0.01
14 12:21 Calm 10.00 Overcast BKN023 OVC032 87.8 80.6 79% 105 30.15 0.0
14 12:02 Calm 10.00 Mostly Cloudy BKN025 BKN032 BKN037 89.6 78.8 71% 105 30.14 0.0
14 11:41 Calm 10.00 Mostly Cloudy SCT025 BKN034 BKN050 89.6 78.8 71% 105 30.15 0.0
14 11:22 Calm 10.00 Partly Cloudy SCT029 SCT038 SCT044 87.8 80.6 79% 105 30.15 0.0
14 11:02 Calm 10.00 Partly Cloudy SCT021 SCT031 SCT039 89.6 78.8 71% 105 30.15 0.0
14 10:41 Calm 10.00 Mostly Cloudy SCT023 BKN029 87.8 78.8 75% 102 30.16 0.0
14 10:22 Calm 10.00 Partly Cloudy SCT021 SCT029 87.8 78.8 75% 102 30.16 0.0
14 10:02 SW 5 10.00 Partly Cloudy SCT019 SCT026 87.8 78.8 75% 102 30.15 0.0
14 09:42 Calm 10.00 Fair CLR 86 80.6 84% 102 30.15 0.0
14 09:22 S 3 10.00 Fair CLR 84.2 80.6 89% 98 30.15 0.0
14 09:03 Calm 10.00 Fair CLR 84.2 80.6 89% 98 30.16 0.0
14 08:41 Calm 10.00 Fair CLR 82.4 80.6 94% 94 30.15 0.0
14 08:22 Calm 10.00 Fair CLR 82.4 80.6 94% 94 30.15 0.0
14 08:02 Calm 10.00 Fair CLR 80.6 80.6 100% 89 30.14 0.0
14 07:42 Calm 10.00 Partly Cloudy SCT024 80.6 78.8 94% 88 30.14 0.0
14 07:21 Calm 10.00 Fair CLR 78.8 78.8 100% 83 30.14 0.0
14 07:02 Calm 10.00 Fair CLR 78.8 77 94% 83 30.13 0.0
14 06:41 Calm 10.00 Fair CLR 78.8 77 94% 83 30.13 0.0
Date Time (cdt) Wind (mph) Vis. (mi.) Weather Sky Cond. Air Dwpt Max. Min. Relative Humidity Wind Chill (°F) Heat Index (°F) altimeter (in) sea level (mb) 1 hr 3 hr 6 hr
6 hour
Temperature (ºF) Pressure Precipitation (in)